| time (UTC) | temp F | wind direction | speed knots | gust knots | rain 1hr in | rain 24hr in | rain mn in | humidity % | barometer mb |
| 20260905212108 | 81 | 219 | 2.6 | 13.0 | 0.00 | 0.00 | 0.00 | 19 | 933.9 |
| 20260905211603 | 81 | 231 | 4.3 | 17.4 | 0.00 | 0.00 | 0.00 | 20 | 933.9 |
| 20260905211059 | 81 | 239 | 6.1 | 13.0 | 0.00 | 0.00 | 0.00 | 20 | 933.9 |
| 20260905210554 | 81 | 233 | 7.8 | 9.6 | 0.00 | 0.00 | 0.00 | 22 | 934.2 |
| 20260905210049 | 81 | 204 | 11.3 | 14.8 | 0.00 | 0.00 | 0.00 | 21 | 933.9 |
| 20260905205549 | 81 | 239 | 5.2 | 17.4 | 0.00 | 0.00 | 0.00 | 22 | 934.1 |
| 20260905205048 | 81 | 309 | 3.5 | 9.6 | 0.00 | 0.00 | 0.00 | 22 | 933.9 |
| 20260905204543 | 80 | 316 | 2.6 | 7.8 | 0.00 | 0.00 | 0.00 | 22 | 934.0 |
| 20260905204038 | 80 | 269 | 7.0 | 8.7 | 0.00 | 0.00 | 0.00 | 24 | 934.1 |
| 20260905203538 | 79 | 246 | 0.9 | 7.0 | 0.00 | 0.00 | 0.00 | 23 | 934.2 |
| 20260905203033 | 80 | 214 | 0.9 | 5.2 | 0.00 | 0.00 | 0.00 | 24 | 934.2 |
| 20260905202528 | 81 | 219 | 0.0 | 2.6 | 0.00 | 0.00 | 0.00 | 24 | 934.3 |
| 20260905202024 | 80 | 201 | 1.7 | 7.0 | 0.00 | 0.00 | 0.00 | 22 | 934.3 |
| 20260905201520 | 80 | 256 | 2.6 | 8.7 | 0.00 | 0.00 | 0.00 | 23 | 934.5 |
| 20260905201019 | 80 | 187 | 2.6 | 8.7 | 0.00 | 0.00 | 0.00 | 23 | 934.3 |
| 20260905200515 | 79 | 235 | 2.6 | 7.0 | 0.00 | 0.00 | 0.00 | 23 | 934.4 |
| 20260905200014 | 79 | 210 | 7.8 | 9.6 | 0.00 | 0.00 | 0.00 | 23 | 934.5 |
| 20260905195508 | 79 | 240 | 5.2 | 9.6 | 0.00 | 0.00 | 0.00 | 23 | 934.3 |
| 20260905195004 | 79 | 180 | 2.6 | 7.8 | 0.00 | 0.00 | 0.00 | 22 | 934.5 |
| 20260905194503 | 79 | 244 | 5.2 | 12.2 | 0.00 | 0.00 | 0.00 | 23 | 934.8 |
| 20260905194003 | 78 | 191 | 0.0 | 8.7 | 0.00 | 0.00 | 0.00 | 23 | 934.7 |
| 20260905193458 | 79 | 207 | 0.9 | 7.0 | 0.00 | 0.00 | 0.00 | 23 | 934.5 |
| 20260905192953 | 79 | 248 | 2.6 | 7.0 | 0.00 | 0.00 | 0.00 | 24 | 934.7 |
| 20260905192449 | 79 | 242 | 4.3 | 6.1 | 0.00 | 0.00 | 0.00 | 23 | 934.8 |
| 20260905191945 | 79 | 215 | 4.3 | 7.0 | 0.00 | 0.00 | 0.00 | 22 | 935.0 |
| 20260905191443 | 78 | 240 | 2.6 | 12.2 | 0.00 | 0.00 | 0.00 | 23 | 934.8 |
| 20260905190943 | 77 | 61 | 0.0 | 7.0 | 0.00 | 0.00 | 0.00 | 24 | 934.9 |
| 20260905190441 | 78 | 262 | 1.7 | 4.3 | 0.00 | 0.00 | 0.00 | 22 | 935.0 |
| 20260905185940 | 77 | 199 | 0.0 | 0.9 | 0.00 | 0.00 | 0.00 | 22 | 935.0 |
| 20260905185435 | 78 | 250 | 7.0 | 11.3 | 0.00 | 0.00 | 0.00 | 22 | 935.1 |
| 20260905184934 | 77 | 230 | 5.2 | 8.7 | 0.00 | 0.00 | 0.00 | 24 | 935.2 |
| 20260905184428 | 77 | 173 | 5.2 | 12.2 | 0.00 | 0.00 | 0.00 | 24 | 935.1 |
| 20260905183927 | 77 | 262 | 0.0 | 8.7 | 0.00 | 0.00 | 0.00 | 25 | 935.3 |
| 20260905183422 | 77 | 112 | 0.0 | 2.6 | 0.00 | 0.00 | 0.00 | 24 | 935.2 |
| 20260905182917 | 76 | 236 | 0.0 | 2.6 | 0.00 | 0.00 | 0.00 | 24 | 935.5 |
| 20260905182416 | 76 | 326 | 0.0 | 9.6 | 0.00 | 0.00 | 0.00 | 25 | 935.5 |
| 20260905181913 | 76 | 233 | 0.0 | 8.7 | 0.00 | 0.00 | 0.00 | 24 | 935.5 |
| 20260905181413 | 76 | 271 | 2.6 | 11.3 | 0.00 | 0.00 | 0.00 | 24 | 935.5 |
| 20260905180912 | 77 | 214 | 4.3 | 6.1 | 0.00 | 0.00 | 0.00 | 25 | 935.8 |
| 20260905180407 | 77 | 201 | 0.9 | 6.1 | 0.00 | 0.00 | 0.00 | 25 | 935.7 |
| 20260905175907 | 75 | 210 | 0.0 | 0.9 | 0.00 | 0.00 | 0.00 | 25 | 935.7 |
| 20260905175406 | 75 | 222 | 6.1 | 13.0 | 0.00 | 0.00 | 0.00 | 25 | 935.7 |
| 20260905174907 | 77 | 199 | 7.0 | 11.3 | 0.00 | 0.00 | 0.00 | 23 | 935.7 |
| 20260905174402 | 76 | 107 | 6.1 | 11.3 | 0.00 | 0.00 | 0.00 | 25 | 935.8 |
| 20260905173858 | 76 | 319 | 0.0 | 11.3 | 0.00 | 0.00 | 0.00 | 25 | 935.8 |
| 20260905173354 | 75 | 85 | 0.0 | 2.6 | 0.00 | 0.00 | 0.00 | 27 | 936.0 |
| 20260905172849 | 75 | 298 | 4.3 | 11.3 | 0.00 | 0.00 | 0.00 | 26 | 935.8 |
| 20260905172347 | 74 | 187 | 3.5 | 13.0 | 0.00 | 0.00 | 0.00 | 27 | 935.7 |
| 20260905171843 | 75 | 198 | 9.6 | 12.2 | 0.00 | 0.00 | 0.00 | 25 | 935.6 |
| 20260905171340 | 75 | 191 | 5.2 | 9.6 | 0.00 | 0.00 | 0.00 | 26 | 935.6 |
| 20260905170836 | 74 | 210 | 7.0 | 11.3 | 0.00 | 0.00 | 0.00 | 26 | 935.9 |
| 20260905170332 | 74 | 174 | 8.7 | 11.3 | 0.00 | 0.00 | 0.00 | 25 | 935.6 |
| 20260905165831 | 73 | 256 | 0.9 | 8.7 | 0.00 | 0.00 | 0.00 | 26 | 935.6 |
| 20260905165326 | 74 | 207 | 7.8 | 11.3 | 0.00 | 0.00 | 0.00 | 28 | 935.8 |
| 20260905164826 | 73 | 235 | 0.9 | 11.3 | 0.00 | 0.00 | 0.00 | 29 | 935.6 |
| 20260905164321 | 73 | 190 | 1.7 | 9.6 | 0.00 | 0.00 | 0.00 | 30 | 935.8 |
| 20260905163816 | 73 | 173 | 7.0 | 13.0 | 0.00 | 0.00 | 0.00 | 29 | 935.5 |
| 20260905163313 | 72 | 234 | 7.8 | 11.3 | 0.00 | 0.00 | 0.00 | 30 | 935.7 |
| 20260905162808 | 72 | 182 | 4.3 | 7.8 | 0.00 | 0.00 | 0.00 | 31 | 935.5 |
| 20260905162305 | 72 | 184 | 7.0 | 12.2 | 0.00 | 0.00 | 0.00 | 31 | 935.3 |
| 20260905161803 | 71 | 94 | 0.0 | 9.6 | 0.00 | 0.00 | 0.00 | 34 | 935.5 |
| 20260905161302 | 71 | 267 | 7.0 | 9.6 | 0.00 | 0.00 | 0.00 | 32 | 935.6 |
| 20260905160801 | 71 | 164 | 0.0 | 1.7 | 0.00 | 0.00 | 0.00 | 32 | 935.3 |
| 20260905160254 | 71 | 263 | 0.0 | 7.0 | 0.00 | 0.00 | 0.00 | 32 | 935.7 |
| 20260905155749 | 71 | 217 | 0.9 | 12.2 | 0.00 | 0.00 | 0.00 | 32 | 935.2 |
| 20260905155248 | 70 | 239 | 3.5 | 9.6 | 0.00 | 0.00 | 0.00 | 32 | 935.5 |
| 20260905154742 | 70 | 183 | 5.2 | 11.3 | 0.00 | 0.00 | 0.00 | 33 | 935.5 |
| 20260905154239 | 70 | 341 | 0.0 | 0.0 | 0.00 | 0.00 | 0.00 | 35 | 935.5 |
| 20260905153734 | 69 | 194 | 0.9 | 1.7 | 0.00 | 0.00 | 0.00 | 37 | 935.6 |
| 20260905153230 | 69 | 253 | 0.0 | 0.9 | 0.00 | 0.00 | 0.00 | 39 | 935.6 |
| 20260905152724 | 68 | 199 | 7.0 | 7.8 | 0.00 | 0.00 | 0.00 | 36 | 935.7 |
| 20260905152219 | 67 | 273 | 0.0 | 0.0 | 0.00 | 0.00 | 0.00 | 42 | 935.8 |
| 20260905151718 | 66 | 3 | 0.0 | 0.9 | 0.00 | 0.00 | 0.00 | 46 | 935.8 |
| 20260905151215 | 66 | 25 | 0.0 | 0.0 | 0.00 | 0.00 | 0.00 | 46 | 935.6 |
| 20260905150709 | 64 | 22 | 0.0 | 0.0 | 0.00 | 0.00 | 0.00 | 49 | 935.8 |
| 20260905150208 | 65 | 66 | 0.0 | 0.0 | 0.00 | 0.00 | 0.00 | 49 | 935.6 |
| 20260905145706 | 65 | 66 | 0.0 | 0.0 | 0.00 | 0.00 | 0.00 | 51 | 935.5 |
| 20260905145201 | 65 | 69 | 0.0 | 0.0 | 0.00 | 0.00 | 0.00 | 51 | 935.2 |
| 20260905144700 | 64 | 65 | 0.0 | 0.0 | 0.00 | 0.00 | 0.00 | 51 | 935.3 |
| 20260905144200 | 62 | 67 | 0.0 | 0.0 | 0.00 | 0.00 | 0.00 | 53 | 935.2 |
| 20260905143700 | 62 | 73 | 0.0 | 0.0 | 0.00 | 0.00 | 0.00 | 54 | 935.3 |
| 20260905143159 | 61 | 131 | 0.0 | 0.0 | 0.00 | 0.00 | 0.00 | 54 | 935.2 |
| 20260905142658 | 60 | 122 | 0.0 | 0.0 | 0.00 | 0.00 | 0.00 | 55 | 935.0 |
| 20260905142153 | 60 | 95 | 0.0 | 0.0 | 0.00 | 0.00 | 0.00 | 56 | 935.0 |
| 20260905141648 | 59 | 103 | 0.0 | 0.0 | 0.00 | 0.00 | 0.00 | 56 | 935.0 |
| 20260905141144 | 58 | 77 | 0.0 | 0.0 | 0.00 | 0.00 | 0.00 | 58 | 935.1 |
| 20260905140639 | 58 | 101 | 0.0 | 0.0 | 0.00 | 0.00 | 0.00 | 58 | 934.8 |
| 20260905140138 | 57 | 108 | 0.0 | 0.0 | 0.00 | 0.00 | 0.00 | 58 | 934.9 |
| 20260905135634 | 57 | 102 | 0.0 | 0.0 | 0.00 | 0.00 | 0.00 | 58 | 935.0 |
| 20260905135129 | 56 | 103 | 0.0 | 0.0 | 0.00 | 0.00 | 0.00 | 60 | 934.8 |
| 20260905134624 | 56 | 69 | 0.0 | 1.7 | 0.00 | 0.00 | 0.00 | 59 | 934.8 |
| 20260905134122 | 55 | 55 | 0.0 | 0.0 | 0.00 | 0.00 | 0.00 | 60 | 934.7 |
| 20260905133619 | 55 | 63 | 0.0 | 0.0 | 0.00 | 0.00 | 0.00 | 61 | 934.5 |
| 20260905133118 | 52 | 103 | 0.0 | 0.0 | 0.00 | 0.00 | 0.00 | 65 | 934.4 |
| 20260905132618 | 50 | 75 | 0.0 | 0.0 | 0.00 | 0.00 | 0.00 | 68 | 934.4 |
| 20260905132113 | 50 | 87 | 0.0 | 0.0 | 0.00 | 0.00 | 0.00 | 69 | 934.3 |
| 20260905131608 | 50 | 71 | 0.0 | 0.0 | 0.00 | 0.00 | 0.00 | 68 | 934.3 |
| 20260905131103 | 50 | 81 | 0.0 | 0.0 | 0.00 | 0.00 | 0.00 | 67 | 934.2 |
| 20260905130603 | 50 | 78 | 0.0 | 0.0 | 0.00 | 0.00 | 0.00 | 69 | 934.1 |
| 20260905130057 | 50 | 90 | 0.0 | 0.0 | 0.00 | 0.00 | 0.00 | 69 | 934.1 |
| 20260905125557 | 50 | 87 | 0.0 | 0.0 | 0.00 | 0.00 | 0.00 | 69 | 934.2 |
| 20260905125053 | 49 | 59 | 0.0 | 0.0 | 0.00 | 0.00 | 0.00 | 74 | 934.1 |
| 20260905124549 | 49 | 74 | 0.0 | 0.0 | 0.00 | 0.00 | 0.00 | 72 | 934.2 |
| 20260905124045 | 49 | 54 | 0.0 | 0.0 | 0.00 | 0.00 | 0.00 | 73 | 934.2 |
| 20260905123540 | 49 | 46 | 0.0 | 0.0 | 0.00 | 0.00 | 0.00 | 75 | 934.0 |
| 20260905123037 | 49 | 45 | 0.0 | 0.0 | 0.00 | 0.00 | 0.00 | 75 | 933.7 |
| 20260905122536 | 49 | 43 | 0.0 | 0.0 | 0.00 | 0.00 | 0.00 | 74 | 934.0 |
| 20260905122032 | 49 | 43 | 0.0 | 0.0 | 0.00 | 0.00 | 0.00 | 74 | 933.9 |
| 20260905121532 | 49 | 66 | 0.0 | 0.0 | 0.00 | 0.00 | 0.00 | 74 | 934.0 |
| 20260905121027 | 49 | 87 | 0.0 | 0.0 | 0.00 | 0.00 | 0.00 | 73 | 934.0 |
| 20260905120526 | 50 | 69 | 0.0 | 0.0 | 0.00 | 0.00 | 0.00 | 72 | 934.0 |
| 20260905120022 | 49 | 82 | 0.0 | 0.0 | 0.00 | 0.00 | 0.00 | 72 | 934.1 |
| 20260905115520 | 48 | 71 | 0.0 | 0.0 | 0.00 | 0.00 | 0.00 | 73 | 934.1 |
| 20260905115015 | 49 | 101 | 0.0 | 0.0 | 0.00 | 0.00 | 0.00 | 73 | 934.3 |
| 20260905114514 | 48 | 64 | 0.0 | 0.0 | 0.00 | 0.00 | 0.00 | 76 | 934.0 |
| 20260905114014 | 49 | 43 | 0.0 | 0.0 | 0.00 | 0.00 | 0.00 | 76 | 934.1 |
| 20260905113509 | 50 | 77 | 0.0 | 0.0 | 0.00 | 0.00 | 0.00 | 75 | 934.0 |
| 20260905113004 | 50 | 64 | 0.0 | 0.0 | 0.00 | 0.00 | 0.00 | 75 | 934.1 |
| 20260905112459 | 50 | 88 | 0.0 | 0.0 | 0.00 | 0.00 | 0.00 | 76 | 933.9 |
| 20260905111954 | 50 | 71 | 0.0 | 0.0 | 0.00 | 0.00 | 0.00 | 76 | 934.1 |
| 20260905111449 | 50 | 54 | 0.0 | 0.0 | 0.00 | 0.00 | 0.00 | 76 | 934.1 |
| 20260905110949 | 50 | 64 | 0.0 | 0.0 | 0.00 | 0.00 | 0.00 | 75 | 933.7 |
| 20260905110448 | 50 | 53 | 0.0 | 0.0 | 0.00 | 0.00 | 0.00 | 75 | 933.9 |
| 20260905105948 | 50 | 74 | 0.0 | 0.0 | 0.00 | 0.00 | 0.00 | 74 | 933.9 |
| 20260905105443 | 50 | 96 | 0.0 | 0.0 | 0.00 | 0.00 | 0.00 | 74 | 933.7 |
| 20260905104942 | 50 | 100 | 0.0 | 0.0 | 0.00 | 0.00 | 0.00 | 75 | 933.7 |
| 20260905104439 | 50 | 79 | 0.0 | 0.0 | 0.00 | 0.00 | 0.00 | 76 | 933.7 |
| 20260905103939 | 50 | 83 | 0.0 | 0.0 | 0.00 | 0.00 | 0.00 | 75 | 933.9 |
| 20260905103434 | 50 | 71 | 0.0 | 0.0 | 0.00 | 0.00 | 0.00 | 74 | 933.6 |
| 20260905102930 | 50 | 81 | 0.0 | 0.0 | 0.00 | 0.00 | 0.00 | 74 | 933.6 |
| 20260905102426 | 50 | 80 | 0.0 | 0.0 | 0.00 | 0.00 | 0.00 | 74 | 933.7 |
| 20260905101921 | 50 | 71 | 0.0 | 0.0 | 0.00 | 0.00 | 0.00 | 74 | 933.5 |
| 20260905101420 | 50 | 69 | 0.0 | 0.0 | 0.00 | 0.00 | 0.00 | 73 | 933.5 |
| 20260905100914 | 50 | 45 | 0.0 | 0.0 | 0.00 | 0.00 | 0.00 | 74 | 933.4 |
| 20260905100410 | 51 | 44 | 0.0 | 0.0 | 0.00 | 0.00 | 0.00 | 71 | 933.6 |
| 20260905095910 | 51 | 75 | 0.0 | 0.0 | 0.00 | 0.00 | 0.00 | 72 | 933.5 |
| 20260905095404 | 51 | 94 | 0.0 | 0.0 | 0.00 | 0.00 | 0.00 | 72 | 933.5 |
| 20260905094904 | 51 | 75 | 0.0 | 0.0 | 0.00 | 0.00 | 0.00 | 72 | 933.4 |
| 20260905094400 | 51 | 69 | 0.0 | 0.0 | 0.00 | 0.00 | 0.00 | 72 | 933.3 |
| 20260905093859 | 51 | 73 | 0.0 | 0.0 | 0.00 | 0.00 | 0.00 | 72 | 933.4 |
| 20260905093354 | 51 | 73 | 0.0 | 0.0 | 0.00 | 0.00 | 0.00 | 72 | 933.4 |
| 20260905092850 | 51 | 58 | 0.0 | 0.0 | 0.00 | 0.00 | 0.00 | 72 | 933.3 |
| 20260905092350 | 51 | 68 | 0.0 | 0.0 | 0.00 | 0.00 | 0.00 | 71 | 933.2 |
| 20260905091845 | 52 | 76 | 0.0 | 0.0 | 0.00 | 0.00 | 0.00 | 70 | 933.3 |
| 20260905091345 | 52 | 77 | 0.0 | 0.0 | 0.00 | 0.00 | 0.00 | 70 | 932.9 |
| 20260905090844 | 51 | 79 | 0.0 | 0.0 | 0.00 | 0.00 | 0.00 | 71 | 933.1 |
| 20260905090340 | 51 | 81 | 0.0 | 0.0 | 0.00 | 0.00 | 0.00 | 71 | 933.1 |
| 20260905085839 | 52 | 70 | 0.0 | 0.0 | 0.00 | 0.00 | 0.00 | 71 | 932.9 |
| 20260905085339 | 51 | 68 | 0.0 | 0.0 | 0.00 | 0.00 | 0.00 | 71 | 933.2 |
| 20260905084835 | 51 | 59 | 0.0 | 0.0 | 0.00 | 0.00 | 0.00 | 72 | 933.2 |
| 20260905084334 | 52 | 47 | 0.0 | 0.0 | 0.00 | 0.00 | 0.00 | 70 | 932.9 |
| 20260905083829 | 53 | 66 | 0.0 | 0.0 | 0.00 | 0.00 | 0.00 | 68 | 932.9 |
| 20260905083325 | 53 | 65 | 0.0 | 0.0 | 0.00 | 0.00 | 0.00 | 68 | 933.1 |
| 20260905082820 | 53 | 65 | 0.0 | 0.0 | 0.00 | 0.00 | 0.00 | 68 | 932.9 |
| 20260905082316 | 52 | 75 | 0.0 | 0.0 | 0.00 | 0.00 | 0.00 | 69 | 932.9 |
| 20260905081811 | 52 | 83 | 0.0 | 0.0 | 0.00 | 0.00 | 0.00 | 69 | 932.9 |
| 20260905081306 | 52 | 75 | 0.0 | 0.0 | 0.00 | 0.00 | 0.00 | 69 | 932.9 |
| 20260905080805 | 52 | 90 | 0.0 | 0.0 | 0.00 | 0.00 | 0.00 | 69 | 932.8 |
| 20260905080306 | 53 | 53 | 0.0 | 0.0 | 0.00 | 0.00 | 0.00 | 68 | 932.8 |
| 20260905075804 | 53 | 50 | 0.0 | 0.0 | 0.00 | 0.00 | 0.00 | 67 | 933.1 |
| 20260905075306 | 54 | 71 | 0.0 | 0.0 | 0.00 | 0.00 | 0.00 | 66 | 932.6 |
| 20260905074803 | 54 | 74 | 0.0 | 0.0 | 0.00 | 0.00 | 0.00 | 66 | 932.7 |
| 20260905074259 | 54 | 90 | 0.0 | 0.0 | 0.00 | 0.00 | 0.00 | 66 | 932.8 |
| 20260905073754 | 54 | 95 | 0.0 | 0.0 | 0.00 | 0.00 | 0.00 | 65 | 932.7 |
| 20260905073250 | 54 | 95 | 0.0 | 0.0 | 0.00 | 0.00 | 0.00 | 65 | 932.7 |
| 20260905072749 | 55 | 77 | 0.0 | 0.0 | 0.00 | 0.00 | 0.00 | 65 | 932.7 |
| 20260905072245 | 55 | 78 | 0.0 | 0.0 | 0.00 | 0.00 | 0.00 | 64 | 932.4 |
| 20260905071741 | 55 | 78 | 0.0 | 0.0 | 0.00 | 0.00 | 0.00 | 64 | 932.8 |
| 20260905071237 | 54 | 70 | 0.0 | 0.0 | 0.00 | 0.00 | 0.00 | 65 | 932.6 |
| 20260905070732 | 54 | 45 | 0.0 | 0.0 | 0.00 | 0.00 | 0.00 | 66 | 932.5 |
| 20260905070228 | 54 | 45 | 0.0 | 0.0 | 0.00 | 0.00 | 0.00 | 65 | 932.4 |
| 20260905065726 | 55 | 58 | 0.0 | 0.0 | 0.00 | 0.00 | 0.00 | 65 | 932.1 |
| 20260905065221 | 55 | 64 | 0.0 | 0.0 | 0.00 | 0.00 | 0.00 | 63 | 932.1 |
| 20260905064716 | 55 | 87 | 0.0 | 0.0 | 0.00 | 0.00 | 0.00 | 64 | 932.4 |
| 20260905064212 | 56 | 78 | 0.0 | 0.0 | 0.00 | 0.00 | 0.00 | 60 | 932.1 |
| 20260905063710 | 55 | 80 | 0.0 | 0.0 | 0.00 | 0.00 | 0.00 | 61 | 932.1 |
| 20260905063207 | 56 | 71 | 0.0 | 0.0 | 0.00 | 0.00 | 0.00 | 61 | 932.3 |
| 20260905062702 | 56 | 71 | 0.0 | 0.0 | 0.00 | 0.00 | 0.00 | 60 | 932.0 |
| 20260905062201 | 56 | 102 | 0.0 | 0.0 | 0.00 | 0.00 | 0.00 | 60 | 932.4 |
| 20260905061656 | 56 | 78 | 0.0 | 0.0 | 0.00 | 0.00 | 0.00 | 59 | 932.1 |
| 20260905061155 | 57 | 64 | 0.0 | 0.0 | 0.00 | 0.00 | 0.00 | 58 | 932.0 |
| 20260905060651 | 57 | 68 | 0.0 | 0.0 | 0.00 | 0.00 | 0.00 | 57 | 932.0 |
| 20260905060148 | 58 | 82 | 0.0 | 0.0 | 0.00 | 0.00 | 0.00 | 56 | 931.8 |
| 20260905055646 | 58 | 69 | 0.0 | 0.0 | 0.00 | 0.00 | 0.00 | 55 | 931.8 |
| 20260905055141 | 59 | 115 | 0.0 | 0.0 | 0.00 | 0.00 | 0.00 | 54 | 931.8 |
| 20260905054637 | 60 | 111 | 0.0 | 0.0 | 0.00 | 0.00 | 0.00 | 51 | 931.9 |
| 20260905054132 | 60 | 74 | 0.0 | 0.0 | 0.00 | 0.00 | 0.00 | 52 | 931.8 |
| 20260905053632 | 60 | 111 | 0.0 | 0.0 | 0.00 | 0.00 | 0.00 | 51 | 931.8 |
| 20260905053127 | 60 | 141 | 0.0 | 0.9 | 0.00 | 0.00 | 0.00 | 50 | 931.7 |
| 20260905052626 | 60 | 129 | 0.0 | 0.0 | 0.00 | 0.00 | 0.00 | 51 | 931.5 |
| 20260905052121 | 60 | 86 | 0.0 | 1.7 | 0.00 | 0.00 | 0.00 | 51 | 931.7 |
| 20260905051617 | 60 | 27 | 0.0 | 0.0 | 0.00 | 0.00 | 0.00 | 50 | 931.5 |
| 20260905051114 | 59 | 354 | 0.0 | 0.0 | 0.00 | 0.00 | 0.00 | 51 | 931.6 |
| 20260905050609 | 59 | 40 | 0.0 | 0.0 | 0.00 | 0.00 | 0.00 | 52 | 931.3 |
| 20260905050106 | 60 | 67 | 0.0 | 0.0 | 0.00 | 0.00 | 0.00 | 51 | 931.3 |
| 20260905045606 | 60 | 94 | 0.0 | 5.2 | 0.00 | 0.00 | 0.00 | 50 | 931.3 |
| 20260905045102 | 60 | 148 | 0.0 | 0.0 | 0.00 | 0.00 | 0.00 | 49 | 931.6 |
| 20260905044601 | 61 | 56 | 0.0 | 0.0 | 0.00 | 0.00 | 0.00 | 48 | 931.7 |
| 20260905044056 | 61 | 89 | 0.0 | 0.0 | 0.00 | 0.00 | 0.00 | 48 | 931.9 |
| 20260905043555 | 61 | 119 | 0.0 | 0.0 | 0.00 | 0.00 | 0.00 | 47 | 931.8 |
| 20260905043051 | 61 | 128 | 0.0 | 0.0 | 0.00 | 0.00 | 0.00 | 47 | 932.0 |
| 20260905042549 | 60 | 89 | 0.0 | 0.0 | 0.00 | 0.00 | 0.00 | 48 | 932.0 |
| 20260905042044 | 60 | 47 | 0.0 | 0.0 | 0.00 | 0.00 | 0.00 | 49 | 932.0 |
| 20260905041540 | 61 | 51 | 0.0 | 0.0 | 0.00 | 0.00 | 0.00 | 48 | 931.9 |
| 20260905041035 | 61 | 53 | 0.0 | 0.0 | 0.00 | 0.00 | 0.00 | 49 | 931.6 |
| 20260905040535 | 61 | 55 | 0.0 | 0.0 | 0.00 | 0.00 | 0.00 | 48 | 931.8 |
| 20260905040033 | 62 | 80 | 0.0 | 0.0 | 0.00 | 0.00 | 0.00 | 46 | 931.7 |
| 20260905035529 | 62 | 84 | 0.0 | 0.0 | 0.00 | 0.00 | 0.00 | 45 | 931.7 |
| 20260905035026 | 63 | 80 | 0.0 | 0.0 | 0.00 | 0.00 | 0.00 | 45 | 931.7 |
| 20260905034522 | 64 | 87 | 0.0 | 0.0 | 0.00 | 0.00 | 0.00 | 43 | 931.7 |
| 20260905034021 | 63 | 62 | 0.0 | 0.0 | 0.00 | 0.00 | 0.00 | 44 | 931.6 |
| 20260905033521 | 63 | 67 | 0.0 | 0.0 | 0.00 | 0.00 | 0.00 | 44 | 931.6 |
| 20260905033017 | 63 | 87 | 0.0 | 0.9 | 0.00 | 0.00 | 0.00 | 45 | 931.8 |
| 20260905032511 | 64 | 79 | 0.0 | 0.0 | 0.00 | 0.00 | 0.00 | 44 | 931.7 |
| 20260905032007 | 65 | 71 | 0.0 | 0.0 | 0.00 | 0.00 | 0.00 | 41 | 931.3 |
| 20260905031502 | 65 | 71 | 0.0 | 0.0 | 0.00 | 0.00 | 0.00 | 40 | 931.6 |
| 20260905030957 | 65 | 107 | 0.0 | 0.0 | 0.00 | 0.00 | 0.00 | 41 | 931.1 |
| 20260905030452 | 65 | 90 | 0.0 | 0.0 | 0.00 | 0.00 | 0.00 | 41 | 931.2 |
| 20260905025951 | 66 | 165 | 0.0 | 0.0 | 0.00 | 0.00 | 0.00 | 40 | 931.2 |
| 20260905025447 | 66 | 73 | 0.0 | 0.0 | 0.00 | 0.00 | 0.00 | 39 | 931.1 |
| 20260905024943 | 66 | 61 | 0.0 | 0.0 | 0.00 | 0.00 | 0.00 | 39 | 931.0 |
| 20260905024443 | 67 | 65 | 0.0 | 0.0 | 0.00 | 0.00 | 0.00 | 38 | 931.0 |
| 20260905023939 | 68 | 115 | 0.0 | 0.0 | 0.00 | 0.00 | 0.00 | 37 | 931.1 |
| 20260905023434 | 67 | 95 | 0.0 | 0.0 | 0.00 | 0.00 | 0.00 | 39 | 931.0 |
| 20260905022933 | 67 | 65 | 0.0 | 0.0 | 0.00 | 0.00 | 0.00 | 40 | 930.9 |
| 20260905022428 | 69 | 61 | 0.0 | 0.0 | 0.00 | 0.00 | 0.00 | 41 | 930.9 |
| 20260905021923 | 69 | 60 | 0.0 | 0.0 | 0.00 | 0.00 | 0.00 | 41 | 930.8 |
| 20260905021424 | 71 | 60 | 0.0 | 0.0 | 0.00 | 0.00 | 0.00 | 37 | 930.8 |
| 20260905020919 | 71 | 61 | 0.0 | 0.0 | 0.00 | 0.00 | 0.00 | 33 | 930.9 |
| 20260905020418 | 73 | 61 | 0.0 | 0.0 | 0.00 | 0.00 | 0.00 | 31 | 931.0 |
| 20260905015918 | 73 | 104 | 0.0 | 0.0 | 0.00 | 0.00 | 0.00 | 29 | 930.9 |
| 20260905015416 | 74 | 102 | 0.0 | 0.0 | 0.00 | 0.00 | 0.00 | 29 | 930.8 |
| 20260905014916 | 74 | 163 | 0.0 | 0.0 | 0.00 | 0.00 | 0.00 | 28 | 930.9 |
| 20260905014412 | 75 | 174 | 0.0 | 0.0 | 0.00 | 0.00 | 0.00 | 28 | 931.0 |
| 20260905013912 | 76 | 169 | 0.0 | 1.7 | 0.00 | 0.00 | 0.00 | 27 | 930.8 |
| 20260905013408 | 77 | 253 | 0.0 | 0.0 | 0.00 | 0.00 | 0.00 | 26 | 930.7 |
| 20260905012903 | 77 | 175 | 0.0 | 0.0 | 0.00 | 0.00 | 0.00 | 26 | 930.4 |
| 20260905012358 | 77 | 236 | 0.0 | 7.8 | 0.00 | 0.00 | 0.00 | 25 | 930.9 |
| 20260905011855 | 77 | 170 | 0.0 | 4.3 | 0.00 | 0.00 | 0.00 | 25 | 930.8 |
| 20260905011350 | 78 | 200 | 0.0 | 1.7 | 0.00 | 0.00 | 0.00 | 25 | 930.8 |
| 20260905010846 | 78 | 323 | 0.0 | 2.6 | 0.00 | 0.00 | 0.00 | 26 | 930.8 |
| 20260905010341 | 78 | 278 | 0.0 | 7.0 | 0.00 | 0.00 | 0.00 | 25 | 930.9 |
| 20260905005837 | 78 | 345 | 0.0 | 0.0 | 0.00 | 0.00 | 0.00 | 26 | 930.9 |
| 20260905005333 | 79 | 235 | 7.8 | 11.3 | 0.00 | 0.00 | 0.00 | 24 | 931.1 |
| 20260905004828 | 80 | 312 | 0.0 | 6.1 | 0.00 | 0.00 | 0.00 | 25 | 931.2 |
| 20260905004322 | 80 | 252 | 0.0 | 6.1 | 0.00 | 0.00 | 0.00 | 24 | 931.3 |
| 20260905003818 | 80 | 244 | 5.2 | 11.3 | 0.00 | 0.00 | 0.00 | 24 | 931.3 |
| 20260905003314 | 80 | 248 | 0.9 | 6.1 | 0.00 | 0.00 | 0.00 | 24 | 931.1 |
| 20260905002809 | 80 | 209 | 0.9 | 1.7 | 0.00 | 0.00 | 0.00 | 24 | 931.1 |
| 20260905002309 | 80 | 188 | 2.6 | 9.6 | 0.00 | 0.00 | 0.00 | 25 | 931.2 |
| 20260905001804 | 80 | 218 | 2.6 | 6.1 | 0.00 | 0.00 | 0.00 | 24 | 931.3 |
| 20260905001303 | 80 | 236 | 1.7 | 13.0 | 0.00 | 0.00 | 0.00 | 24 | 931.7 |
| 20260905000759 | 80 | 213 | 3.5 | 11.3 | 0.00 | 0.00 | 0.00 | 24 | 931.5 |
| 20260905000255 | 80 | 215 | 7.0 | 13.0 | 0.00 | 0.00 | 0.00 | 24 | 931.2 |
| 20260904235749 | 81 | 188 | 0.9 | 13.9 | 0.00 | 0.00 | 0.00 | 24 | 931.3 |
| 20260904235244 | 81 | 253 | 2.6 | 13.0 | 0.00 | 0.00 | 0.00 | 24 | 931.3 |
| 20260904234739 | 81 | 287 | 5.2 | 11.3 | 0.00 | 0.00 | 0.00 | 24 | 931.2 |
| 20260904234234 | 81 | 212 | 6.1 | 9.6 | 0.00 | 0.00 | 0.00 | 24 | 930.8 |
| 20260904233730 | 81 | 242 | 7.0 | 12.2 | 0.00 | 0.00 | 0.00 | 24 | 930.9 |
| 20260904233226 | 80 | 216 | 4.3 | 8.7 | 0.00 | 0.00 | 0.00 | 24 | 930.9 |
| 20260904232723 | 80 | 199 | 2.6 | 7.0 | 0.00 | 0.00 | 0.00 | 24 | 931.0 |
| 20260904232219 | 81 | 250 | 13.0 | 15.6 | 0.00 | 0.00 | 0.00 | 23 | 930.8 |
| 20260904231714 | 81 | 233 | 4.3 | 11.3 | 0.00 | 0.00 | 0.00 | 24 | 931.0 |
| 20260904231209 | 81 | 234 | 0.9 | 12.2 | 0.00 | 0.00 | 0.00 | 24 | 930.8 |
| 20260904230708 | 81 | 343 | 0.9 | 7.0 | 0.00 | 0.00 | 0.00 | 24 | 930.8 |
| 20260904230203 | 81 | 246 | 5.2 | 9.6 | 0.00 | 0.00 | 0.00 | 24 | 930.8 |
| 20260904225701 | 81 | 237 | 7.8 | 12.2 | 0.00 | 0.00 | 0.00 | 24 | 930.9 |
| 20260904225156 | 81 | 211 | 4.3 | 11.3 | 0.00 | 0.00 | 0.00 | 25 | 930.9 |
| 20260904224651 | 81 | 251 | 5.2 | 9.6 | 0.00 | 0.00 | 0.00 | 24 | 931.1 |
| 20260904224150 | 81 | 211 | 7.8 | 9.6 | 0.00 | 0.00 | 0.00 | 23 | 931.2 |
| 20260904223650 | 81 | 253 | 3.5 | 17.4 | 0.00 | 0.00 | 0.00 | 25 | 931.0 |
| 20260904223145 | 81 | 151 | 0.0 | 5.2 | 0.00 | 0.00 | 0.00 | 25 | 930.8 |
| 20260904222641 | 81 | 231 | 0.9 | 13.9 | 0.00 | 0.00 | 0.00 | 25 | 930.9 |
| 20260904222137 | 80 | 267 | 7.8 | 15.6 | 0.00 | 0.00 | 0.00 | 25 | 931.0 |
| 20260904221637 | 81 | 225 | 7.8 | 13.9 | 0.00 | 0.00 | 0.00 | 24 | 931.0 |
| 20260904221137 | 81 | 239 | 3.5 | 14.8 | 0.00 | 0.00 | 0.00 | 24 | 931.0 |
| 20260904220632 | 81 | 16 | 1.7 | 9.6 | 0.00 | 0.00 | 0.00 | 24 | 931.3 |
| 20260904220127 | 80 | 279 | 4.3 | 6.1 | 0.00 | 0.00 | 0.00 | 25 | 931.2 |
| 20260904215621 | 80 | 249 | 11.3 | 17.4 | 0.00 | 0.00 | 0.00 | 25 | 931.3 |
| 20260904215117 | 81 | 237 | 7.8 | 13.9 | 0.00 | 0.00 | 0.00 | 24 | 931.1 |
| 20260904214617 | 80 | 291 | 7.0 | 12.2 | 0.00 | 0.00 | 0.00 | 24 | 931.6 |
| 20260904214113 | 80 | 249 | 6.1 | 12.2 | 0.00 | 0.00 | 0.00 | 24 | 931.5 |
| 20260904213611 | 80 | 251 | 5.2 | 8.7 | 0.00 | 0.00 | 0.00 | 24 | 931.2 |
| 20260904213108 | 81 | 248 | 6.1 | 11.3 | 0.00 | 0.00 | 0.00 | 24 | 931.3 |
| 20260904212607 | 81 | 272 | 4.3 | 13.9 | 0.00 | 0.00 | 0.00 | 24 | 931.3 |